Regional Weather Roundup
Issued by NWS Charleston, SC

Current Version | Previous Version | Graphics & Text | Print | Product List | Glossary On
Versions: 1 2 3 4 5 6 7 8 9 10 11 12 13 14 15 16 17 18 19 20 21 22 23 24 25 26 27 28 29 30 31 32 33 34 35 36 37 38 39 40 41 42 43 44 45 46 47 48 49 50
000
ASUS42 KCHS 172325
RWRCHS

REGIONAL WEATHER ROUNDUP
NATIONAL WEATHER SERVICE CHARLESTON SC
700 PM EDT WED SEP 17 2014

NOTE: "FAIR" INDICATES FEW OR NO CLOUDS BELOW 12,000 FEET WITH NO
SIGNIFICANT WEATHER AND/OR OBSTRUCTIONS TO VISIBILITY.

NOT ALL STATIONS ARE QUALITY CONTROLLED BY THE NATIONAL
WEATHER SERVICE. USE DATA WITH CAUTION...ESPECIALLY
DEWPOINT OBSERVATIONS.

SCZ027-030-031-034>040-042>050-180000-
...SOUTH CAROLINA...

CITY           SKY/WX    TMP DP  RH WIND       PRES   REMARKS
N CHARLESTON   CLOUDY    76  70  82 NW8       29.87F
WATERFRONT PRK   N/A     81 N/A N/A E6          N/A
FORT JOHNSON   NOT AVBL
MOUNT PLEASANT FAIR      73  73 100 CALM      29.87F
JOHNS ISLAND   CLEAR     77  77 100 CALM      29.88S
PINOPOLIS        N/A     68  66  94 S3G36     29.80F
MONCKS CORNER    N/A     72  72 100 CALM      29.89R
SUMMERVILLE    RAIN      70  70 100 NE3       29.89S
BEAUFORT MCAS  TSTM      79  74  84 N5        29.86F
BEAUFORT ARPT  FAIR      77  73  88 CALM      29.88R THUNDER
HILTON HEAD IS MOCLDY    81  73  78 CALM      29.87S
GEORGETOWN     NOT AVBL
WALTERBORO     CLOUDY    72 N/A N/A S9        29.91R
ORANGEBURG     PTCLDY    72  67  84 NW5       29.89S
BARNWELL       FAIR      73  70  88 NE3       29.89S
AIKEN          FAIR      73  72  94 NE8       29.94S
MANNING        CLOUDY    77  72  83 CALM      29.90R
KINGSTREE      NOT AVBL
COLUMBIA       MOCLDY    76  67  73 N6        29.90S
SUMTER         PTCLDY    75  66  75 N5        29.88F
FLORENCE       PTCLDY    76  67  73 NW6       29.89S
MYRTLE BEACH   PTCLDY    82  66  57 N9        29.88R
N MYRTLE BEACH CLEAR     78  69  73 CALM      29.87S

$$

GAZ063-065-086>088-099>101-113>116-118-119-134-136>141-150-180000-
...GEORGIA...

CITY           SKY/WX    TMP DP  RH WIND       PRES   REMARKS
SAVANNAH ARPT  TSTM      78  74  87 N7        29.86R FOG
HUNTER AAF     MOCLDY    81  73  78 E5        29.84R
FORT STEWART   PTCLDY    76  69  79 SE2       29.84R
STATESBORO     NOT AVBL
SYLVANIA       MOCLDY    76  74  93 SE5       29.88R
CLAXTON        MOCLDY    82  73  74 SE3       29.86R
THOMSON        PTCLDY    78  75  90 E6        29.94R
AUGUSTA-BUSH   CLOUDY    73  70  90 CALM      29.87S
AUGUSTA-DANIEL LGT RAIN  74  71  91 NE7       29.90R
SWAINSBORO     FAIR      86  72  62 NW5       29.86S HX  92
VIDALIA        CLEAR     84  70  61 CALM      29.85S
ALMA           CLEAR     82  73  74 CALM      29.85S
WAYCROSS       CLEAR     89  73  59 CALM      29.84S HX  97
JESUP          FAIR      79  72  78 CALM      29.85S
BRUNSWICK      CLEAR     79  72  78 CALM      29.86S
SAINT SIMONS   CLEAR     81  72  74 SE5       29.85S

$$

SCZ027-028-034-036>038-045-046-048>050-GAZ119-141-180000-
...LAKE AND SUPPLEMENTAL COASTAL OBSERVATIONS...

STATION/POSITION TIME  TEMP    WIND        PRES    WAVE   SWELL
                       AIR SEA DIR/SP/G            HT/PER HT/PER/DIR
                 (UTC) (F)     (DEG/KT/KT) (MB)    (FT/S) (FT/S/D)
UPR LAKE MARION  NOT AVBL
WINYAH BAY       2300   80     130/  2     1011.0S
LAKE MURRAY      2300   75      40/  2/  6 1012.2S
ACE BASIN NERRS  2300   79        CALM     1011.0S
FORT PULASKI     2300   80     140/  2/  4 1011.3R
SAPELO ISLAND    2300   82     140/  3     1011.0S

$$

ANZ835-935-AMZ111-154-330-350-352-354-374-450-454-472-180000-
...C-MAN AND BUOY OBSERVATIONS...

STATION/POSITION TIME  TEMP    WIND        PRES    WAVE   SWELL
                       AIR SEA DIR/SP/G            HT/PER HT/PER/DIR
                 (UTC) (F)     (DEG/KT/KT) (MB)    (FT/S) (FT/S/D)
FOLLY BEACH CMAN 2300   79      90/  5/  6 1011.6F
BUOY 41004       2300   80 83   10/  8/ 10 1011.1R   4/12   3/12
BUOY 41008       2300   81 85  120/  6/  8 1010.6F   2/15   2/ 70/15
5E ST. MARYS GA  2300      85                N/A     3/14   3/100/14
FRYING PAN BUOY  NOT AVBL
BUOY 41025       2300   75      20/ 16/ 19 1011.7R   6/ 7   3/ 80/13
CAPE LOOKOUT NC  2300   75      40/ 17/ 19 1012.2R
BUOY 41002       2227   78 82  290/ 10/ 12 1010.1S   6/12   5/ 90/12
BUOY 41010       2300   80 85  300/  6/  8 1011.3R   5/14   5/ 60/14
BUOY 41012       NOT AVBL
ST AUGUSTINE FL  2300   80      90/  1/  2 1011.9R
CAPERS NEARSHORE 2200   80      60/  4/  6   N/A
FRIPP NEARSHORE  NOT AVBL


$$



USA.gov is the U.S. government's official web portal to all federal, state and local government web resources and services.